User: anonymous   Login
Location: Arthez
(43.0833°N, 0.2500°W)
Time: 11:52:59
(UTC+00:00)
Language:

NOSS 3-1 (A) - Orbit

View from above orbital plane
View from above orbital plane
View from above satellite
View from above satellite

Ground track
Ground track

The orbit data is extracted from the following two-line orbital elements,

1 26905U 01040A   22271.78343685 0.00000050  00000-0  37901-4 0    07
2 26905  63.3939 137.4747 0541812   4.0186 355.9814 13.40838766    01
Epoch (UTC): 28 September 2022 18:48:08
Eccentricity: 0.0541812
inclination: 63.3939°
perigee height: 700 km
apogee height: 1511 km
right ascension of ascending node: 137.4747°
argument of perigee: 4.0186°
revolutions per day: 13.40838766
mean anomaly at epoch: 355.9814°
orbit number at epoch: 0

The dashed part of the orbit path shows where the satellite is in the earth's shadow,  

DLR